Showing default

SECOR 5 (EGRS 5), 1506

Orbit data source: Space-Track

SECOR 5 (EGRS 5), 1506 is an American payload satellite in LEO that was launched on Tue, 10 Aug 1965 UTC via an SCOUT B launch vehicle from the Wallops Island (WLPIS). Payload-class satellites include a variety of spacecraft equipped with specific instruments for various scientific and technological missions. These include communications satellites like Starlink; space stations such as the ISS; scientific satellites like the Hubble; Earth observation satellites from companies like Planet Labs, Umbra, and HawkEye 360; GPS; miniature CubeSats for education and research; and military/defense satellites.

Loading next visibility...
Identifier
1506, 1965-063A
Orbit
LEO
Country
Flag of USUS
Related business
Manufacturer
Cubic
Mission
Civil Technology
Bus & Motor
NRL 20", Unknown motor
Mass
18 kg wet, 18 kg dry
Launch date (UTC)
1965-08-10 (60 years ago)
Launch vehicle
SCOUT B
Launch site
Wallops Island (WLPIS)
Object type
Payload
Rocket body
Debris
Shape & HBR
Sphere, 0.3 m
Radar Cross Section
0.204 m², Medium (>0.1 m² and < 1m²)

Expand to show TLE details & history
Last TLE update: 17 hours ago

TLE from 17 hours ago
0 SECOR 5 (EGRS 5)
1 01506U 65063A   25260.12425073 -.00000013  00000-0  12951-3 0  9997
2 01506  69.2326 301.1101 0785695  19.8658   9.5521 11.78679589586075
Epoch: 2025-09-17T02:58Z
TLE epoch observation values (Epoch: 2025-09-17T02:58:55.263Z)
Latitude
28.9131°
Longitude
-87.8982°
Altitude
1,150.096 km
Speed
7.557 km/s
True Right ascension
20h 52m 32s
True Declination
28° 46' 31"
Sunlit
Object was in full shadow at epoch
Visualization orbit readout
Latitude
Unknown
Longitude
Unknown
Altitude
Unknown
Speed
Unknown
Apparent Right ascension
Unknown
Apparent Declination
Unknown
Sunlit
N/A
Visualization observer readout
Local Sidereal Time
12:57:49
Azimuth
Unknown
Elevation
Unknown
Doppler factor
Unknown
Orbital elements
Apogee altitude
2,416.732 km
Perigee altitude
1,135.389 km
Semi-major axis
8,154.197 km
Eccentricity
0.07857
Inclination
69.2326°
RAAN
301.1101°
Arg. of periapsis
19.8658°
True anomaly
11.20537°
Mean anomaly
9.5521°
Eccentric anomaly
10.36179°
Mean motion
2.94762 °/min
Orbital period
122.13 mins
BSTAR
0.00012951
Loading maneuver chart data...
Computing Atmospheric mass density...
Loading historical data...
Loading historical data...
Loading historical data...
Loading historical data...
Loading historical data...
Loading historical data...
Loading historical data...

Documentation

Showing up to 5 results
|